THORAD AGENA D DEB, 4612

Orbit data source: Space-Track

THORAD AGENA D DEB, 4612 is space debris in SSO originally from a launch on Wed, 08 Apr 1970 UTC launched from the Air Force Western Test Range (AFWTR). Debris objects in space refer to the collection of defunct objects orbiting the Earth. Examples of debris include non-operational satellites, rocket bodies, and fragments generated from explosions, collisions, or faulty payload assembly.

Loading next visibility...
Identifier
4612, 1970-025Q
Orbit
SSO
Country
Flag of USUS
Related business
Manufacturer
Unknown
Mission
Spacecraft
Bus & Motor
Unknown
Mass
Unknown
Launch date (UTC)
1970-04-08 (56 years ago)
Launch vehicle
Unknown
Launch site
Air Force Western Test Range (AFWTR)
Object type
Payload
Rocket body
Debris
Shape & HBR
Unknown shape, 0.1 m
Radar Cross Section
Medium (>0.1 m² and <1 m²)

Expand to show TLE details & history
Last TLE update: 17 hours ago

TLE from 17 hours ago
0 THORAD AGENA D DEB
1 04612U 70025Q   26255.67664738  .00000677  00000-0  44420-3 0  9991
2 04612  99.6486 180.5630 0082567  87.8716 273.1901 14.04193558857200
Epoch: 2026-09-12T16:14Z
TLE epoch observation values (Epoch: 2026-09-12T16:14:22.333Z)
Latitude
-0.00002°
Longitude
-54.71228°
Altitude
879.33 km
Speed
7.414 km/s
True Right ascension
12h 02m 15s
True Declination
0° 00' 00"
Sunlit
Object was in daylight at epoch
Visualization orbit readout
Latitude
Unknown
Longitude
Unknown
Altitude
Unknown
Speed
Unknown
Apparent Right ascension
Unknown
Apparent Declination
Unknown
Sunlit
N/A
Visualization observer readout
Local Sidereal Time
01:28:03
Azimuth
Unknown
Elevation
Unknown
Doppler factor
Unknown
Orbital elements
Apogee altitude
936.436 km
Perigee altitude
816.637 km
Semi-major axis
7,254.673 km
Eccentricity
0.00826
Inclination
99.6486°
RAAN
180.563°
Arg. of periapsis
87.8716°
True anomaly
272.24492°
Mean anomaly
273.1901°
Eccentric anomaly
272.71756°
Mean motion
3.5125 °/min
Orbital period
102.49 mins
BSTAR
0.0004442
Loading maneuver chart data...
Computing Atmospheric mass density...

Documentation

Showing up to 5 results
|